This demonstration page uses our WeatherBlox Daily Observations layout. Learn more.

39.92423, -83.80882

Hourly Observations for December 26, 2019

Temp ( °F °C ) Dew Point ( °F °C ) Humidity (%) Winds ( mph kmh ) Pressure ( in mb ) Visibility ( mi km ) Precip ( " mm )
12:56 am 00:56 Clear 50 10 47 8.3 89 89 SSW 3 6 30.04 1017 10 16.0934 0 0
1:56 am 01:56 Clear 44 6.7 44 6.7 100 100 S 3 6 30.06 1018 10 16.0934 0 0
2:56 am 02:56 Clear 45 7.2 45 7.2 100 100 SSE 7 11 30.07 1018 10 16.0934 0 0
3:56 am 03:56 Clear 40 4.4 40 4.4 100 100 SSE 3 6 30.09 1019 10 16.0934 0 0
4:56 am 04:56 Clear 43 6.1 43 6.1 100 100 S 5 7 30.08 1019 10 16.0934 0 0
5:46 am 05:46 Clear with Mist and Fog 39 4 39 4 100 100 Calm 30.12 1020 1.75 2.816345 0 0
5:51 am 05:51 Clear with Mist and Fog 39 4 39 4 100 100 Calm 30.12 1020 0.75 1.207005 0 0
5:56 am 05:56 Clear with Fog 38 3.3 38 3.3 100 100 ESE 3 6 30.1 1019 0.5 0.80467 0 0
6:03 am 06:03 Clear with Fog 37 3 37 3 100 100 SE 3 6 30.13 1020 0.25 0.402335 0 0
6:30 am 06:30 Clear with Fog 36 2 36 2 100 100 SSE 5 7 30.15 1021 0.5 0.80467 0 0
6:44 am 06:44 Clear with Light Rain 37 3 37 3 100 100 SSE 7 11 30.14 1021 1 1.60934 0.001 0.001
6:49 am 06:49 Clear with Light Rain 39 4 39 4 100 100 SSE 7 11 30.14 1021 2.5 4.02335 0.001 0.001
6:56 am 06:56 Clear with Light Rain 41 5 41 5 100 100 S 5 7 30.12 1020 7 11.26538 0.001 0.001
7:56 am 07:56 Mostly Sunny 44 6.7 44 6.7 100 100 S 6 9 30.13 1020 10 16.0934 0.001 0.001
8:27 am 08:27 Mostly Cloudy 46 8 46 8 100 100 S 8 13 30.14 1021 10 16.0934 0 0
8:53 am 08:53 Cloudy 48 9 46 8 94 94 S 8 13 30.15 1021 10 16.0934 0 0
8:56 am 08:56 Cloudy 48 8.9 48 8.9 100 100 S 9 15 30.14 1021 10 16.0934 0 0
9:56 am 09:56 Cloudy 53 11.7 51 10.6 93 93 S 10 17 30.14 1021 10 16.0934 0 0
10:56 am 10:56 Sunny 56 13.3 52 11.1 87 87 SSW 10 17 30.14 1021 10 16.0934 0 0
11:56 am 11:56 Sunny 59 15 54 12.2 83 83 SSW 10 17 30.12 1020 10 16.0934 0 0
12:56 pm 12:56 Sunny 60 15.6 54 12.2 80 80 SSW 8 13 30.1 1019 10 16.0934 0 0
1:56 pm 13:56 Partly Cloudy 60 15.6 54 12.2 80 80 SSW 9 15 30.1 1019 10 16.0934 0 0
2:56 pm 14:56 Cloudy 60 15.6 54 12.2 80 80 S 8 13 30.09 1019 10 16.0934 0 0
3:56 pm 15:56 Cloudy 61 16.1 54 12.2 78 78 S 8 13 30.11 1020 10 16.0934 0 0
4:56 pm 16:56 Cloudy 58 14.4 52 11.1 81 81 S 10 17 30.11 1020 10 16.0934 0 0
5:56 pm 17:56 Mostly Cloudy 55 12.8 50 10 83 83 S 8 13 30.13 1020 10 16.0934 0 0
6:56 pm 18:56 Mostly Cloudy 54 12.2 50 10 87 87 S 8 13 30.13 1020 10 16.0934 0 0
7:56 pm 19:56 Cloudy 55 12.8 51 10.6 87 87 S 7 11 30.14 1021 10 16.0934 0 0
8:56 pm 20:56 Cloudy 55 12.8 51 10.6 87 87 S 7 11 30.14 1021 10 16.0934 0 0
9:56 pm 21:56 Cloudy 55 12.8 51 10.6 87 87 SSW 6 9 30.14 1021 10 16.0934 0 0
10:56 pm 22:56 Cloudy 55 12.8 51 10.6 87 87 SSW 8 13 30.14 1021 10 16.0934 0 0
11:56 pm 23:56 Mostly Cloudy 55 12.8 51 10.6 87 87 SW 8 13 30.13 1020 10 16.0934 0 0

Powered by AerisWeather